Time,TemperatureF,DewpointF,PressureIn,WindDirection,WindDirectionDegrees,WindSpeedMPH,WindSpeedGustMPH,Humidity,HourlyPrecipIn,Conditions,Clouds,dailyrainin,SoftwareType,DateUTC
2013-09-11 00:01:00,78.6,70.0,30.12,South,180,0.0,-999.0,75,0.00,,,0.00,open2300 v1.10,2013-09-11 05:01:00,
2013-09-11 00:06:00,78.6,70.0,30.12,SSW,202,0.0,-999.0,75,0.00,,,0.00,open2300 v1.10,2013-09-11 05:06:00,
2013-09-11 00:16:00,78.6,70.0,30.12,SSW,202,0.0,-999.0,75,0.00,,,0.00,open2300 v1.10,2013-09-11 05:16:00,
2013-09-11 00:21:00,78.6,70.0,30.12,SSW,202,0.0,-999.0,75,0.00,,,0.00,open2300 v1.10,2013-09-11 05:21:00,
2013-09-11 00:27:00,78.6,70.0,30.12,SSW,202,0.0,-999.0,75,0.00,,,0.00,open2300 v1.10,2013-09-11 05:27:00,
2013-09-11 00:32:00,78.6,70.0,30.12,SSW,202,0.0,-999.0,75,0.00,,,0.00,open2300 v1.10,2013-09-11 05:32:00,
2013-09-11 00:37:00,78.6,70.0,30.12,SSW,202,0.0,-999.0,75,0.00,,,0.00,open2300 v1.10,2013-09-11 05:37:00,
2013-09-11 00:42:00,78.6,70.0,30.11,SSW,202,0.0,-999.0,75,0.00,,,0.00,open2300 v1.10,2013-09-11 05:42:00,
2013-09-11 00:47:00,78.6,70.0,30.12,SSW,202,0.0,-999.0,75,0.00,,,0.00,open2300 v1.10,2013-09-11 05:47:00,
2013-09-11 00:57:00,78.6,70.4,30.12,SSW,202,0.0,-999.0,76,0.00,,,0.00,open2300 v1.10,2013-09-11 05:57:00,
2013-09-11 01:06:00,78.6,70.4,30.12,SSW,202,0.0,-999.0,76,0.00,,,0.00,open2300 v1.10,2013-09-11 06:06:00,
2013-09-11 01:11:00,78.6,70.4,30.11,SSW,202,0.0,-999.0,76,0.00,,,0.00,open2300 v1.10,2013-09-11 06:11:00,
2013-09-11 01:16:00,78.6,70.4,30.12,SSW,202,0.0,-999.0,76,0.00,,,0.00,open2300 v1.10,2013-09-11 06:16:00,
2013-09-11 01:21:00,78.6,70.4,30.11,SSW,202,0.0,-999.0,76,0.00,,,0.00,open2300 v1.10,2013-09-11 06:21:00,
2013-09-11 01:27:00,78.6,70.4,30.11,SSW,202,0.0,-999.0,76,0.00,,,0.00,open2300 v1.10,2013-09-11 06:27:00,
2013-09-11 01:32:00,78.6,70.8,30.11,SSW,202,0.0,-999.0,77,0.00,,,0.00,open2300 v1.10,2013-09-11 06:32:00,
2013-09-11 01:37:00,78.6,70.8,30.11,SSW,202,0.0,-999.0,77,0.00,,,0.00,open2300 v1.10,2013-09-11 06:37:00,
2013-09-11 01:42:00,78.6,70.8,30.11,SSW,202,0.0,-999.0,77,0.00,,,0.00,open2300 v1.10,2013-09-11 06:42:00,
2013-09-11 01:47:00,78.6,70.8,30.11,SSW,202,0.0,-999.0,77,0.00,,,0.00,open2300 v1.10,2013-09-11 06:47:00,
2013-09-11 01:52:00,78.6,70.8,30.12,SSW,202,0.0,-999.0,77,0.00,,,0.00,open2300 v1.10,2013-09-11 06:52:00,
2013-09-11 01:57:00,78.6,70.8,30.12,SSW,202,0.0,-999.0,77,0.00,,,0.00,open2300 v1.10,2013-09-11 06:57:00,
2013-09-11 02:06:00,78.6,70.8,30.11,SSW,202,0.0,-999.0,77,0.00,,,0.00,open2300 v1.10,2013-09-11 07:06:00,
2013-09-11 02:11:00,78.6,70.8,30.11,SSW,202,0.0,-999.0,77,0.00,,,0.00,open2300 v1.10,2013-09-11 07:11:00,
2013-09-11 02:16:00,78.4,70.6,30.11,SSW,202,0.0,-999.0,77,0.00,,,0.00,open2300 v1.10,2013-09-11 07:16:00,
2013-09-11 02:22:00,78.3,70.4,30.11,SSW,202,0.0,-999.0,77,0.00,,,0.00,open2300 v1.10,2013-09-11 07:22:00,
2013-09-11 02:32:00,77.9,70.5,30.11,SSW,202,0.0,-999.0,78,0.00,,,0.00,open2300 v1.10,2013-09-11 07:32:00,
2013-09-11 02:37:00,77.7,70.3,30.11,SSW,202,0.0,-999.0,78,0.00,,,0.00,open2300 v1.10,2013-09-11 07:37:00,
2013-09-11 02:42:00,77.5,70.1,30.11,SSW,202,0.0,-999.0,78,0.00,,,0.00,open2300 v1.10,2013-09-11 07:42:00,
2013-09-11 02:47:00,77.4,70.3,30.11,SSW,202,0.0,-999.0,79,0.00,,,0.00,open2300 v1.10,2013-09-11 07:47:00,
2013-09-11 02:52:00,77.2,70.1,30.11,SSW,202,0.0,-999.0,79,0.00,,,0.00,open2300 v1.10,2013-09-11 07:52:00,
2013-09-11 02:57:00,77.0,70.0,30.11,SSW,202,0.0,-999.0,79,0.00,,,0.00,open2300 v1.10,2013-09-11 07:57:00,
2013-09-11 03:06:00,76.6,70.0,30.11,SSE,157,0.0,-999.0,80,0.00,,,0.00,open2300 v1.10,2013-09-11 08:06:00,
2013-09-11 03:11:00,76.3,70.0,30.11,SSE,157,0.0,-999.0,81,0.00,,,0.00,open2300 v1.10,2013-09-11 08:11:00,
2013-09-11 03:16:00,75.9,69.7,30.11,SSE,157,0.0,-999.0,81,0.00,,,0.00,open2300 v1.10,2013-09-11 08:16:00,
2013-09-11 03:22:00,75.7,69.9,30.11,SSE,157,0.0,-999.0,82,0.00,,,0.00,open2300 v1.10,2013-09-11 08:22:00,
2013-09-11 03:27:00,75.7,69.9,30.11,SSE,157,0.0,-999.0,82,0.00,,,0.00,open2300 v1.10,2013-09-11 08:27:00,
2013-09-11 03:32:00,75.7,69.9,30.11,SSE,157,0.0,-999.0,82,0.00,,,0.00,open2300 v1.10,2013-09-11 08:32:00,
2013-09-11 03:37:00,75.6,69.7,30.11,SE,135,0.0,-999.0,82,0.00,,,0.00,open2300 v1.10,2013-09-11 08:37:00,
2013-09-11 03:47:00,75.0,69.6,30.11,SE,135,0.0,-999.0,83,0.00,,,0.00,open2300 v1.10,2013-09-11 08:47:00,
2013-09-11 03:52:00,75.0,69.6,30.11,SE,135,0.0,-999.0,83,0.00,,,0.00,open2300 v1.10,2013-09-11 08:52:00,
2013-09-11 03:57:00,75.0,69.6,30.11,SE,135,0.0,-999.0,83,0.00,,,0.00,open2300 v1.10,2013-09-11 08:57:00,
2013-09-11 04:06:00,74.8,69.4,30.12,SE,135,0.0,-999.0,83,0.00,,,0.00,open2300 v1.10,2013-09-11 09:06:00,
2013-09-11 04:11:00,74.7,69.2,30.12,SE,135,0.0,-999.0,83,0.00,,,0.00,open2300 v1.10,2013-09-11 09:11:00,
2013-09-11 04:17:00,74.5,69.4,30.11,SE,135,0.0,-999.0,84,0.00,,,0.00,open2300 v1.10,2013-09-11 09:17:00,
2013-09-11 04:27:00,74.5,69.4,30.12,SE,135,0.0,-999.0,84,0.00,,,0.00,open2300 v1.10,2013-09-11 09:27:00,
2013-09-11 04:37:00,74.1,69.3,30.12,SE,135,0.0,-999.0,85,0.00,,,0.00,open2300 v1.10,2013-09-11 09:37:00,
2013-09-11 04:47:00,73.8,69.0,30.12,SE,135,0.0,-999.0,85,0.00,,,0.00,open2300 v1.10,2013-09-11 09:47:00,
2013-09-11 04:52:00,73.8,69.0,30.12,SE,135,0.0,-999.0,85,0.00,,,0.00,open2300 v1.10,2013-09-11 09:52:00,
2013-09-11 04:57:00,73.6,68.8,30.12,SE,135,0.0,-999.0,85,0.00,,,0.00,open2300 v1.10,2013-09-11 09:57:00,
2013-09-11 05:06:00,73.4,68.6,30.12,SE,135,0.0,-999.0,85,0.00,,,0.00,open2300 v1.10,2013-09-11 10:06:00,
2013-09-11 05:11:00,73.4,69.0,30.12,SE,135,0.0,-999.0,86,0.00,,,0.00,open2300 v1.10,2013-09-11 10:11:00,
2013-09-11 05:16:00,73.4,69.0,30.12,SE,135,0.0,-999.0,86,0.00,,,0.00,open2300 v1.10,2013-09-11 10:16:00,
2013-09-11 05:21:00,73.2,68.8,30.12,SE,135,0.0,-999.0,86,0.00,,,0.00,open2300 v1.10,2013-09-11 10:21:00,
2013-09-11 05:27:00,73.4,69.0,30.12,SE,135,0.0,-999.0,86,0.00,,,0.00,open2300 v1.10,2013-09-11 10:27:00,
2013-09-11 05:32:00,73.6,69.2,30.12,SE,135,0.7,-999.0,86,0.00,,,0.00,open2300 v1.10,2013-09-11 10:32:00,
2013-09-11 05:37:00,73.6,69.2,30.13,SE,135,0.0,-999.0,86,0.00,,,0.00,open2300 v1.10,2013-09-11 10:37:00,
2013-09-11 05:42:00,73.6,69.2,30.13,SE,135,0.0,-999.0,86,0.00,,,0.00,open2300 v1.10,2013-09-11 10:42:00,
2013-09-11 05:47:00,73.4,69.0,30.13,SE,135,0.0,-999.0,86,0.00,,,0.00,open2300 v1.10,2013-09-11 10:47:00,
2013-09-11 05:52:00,73.4,69.0,30.13,SE,135,0.0,-999.0,86,0.00,,,0.00,open2300 v1.10,2013-09-11 10:52:00,
2013-09-11 05:57:00,73.2,68.8,30.13,SE,135,0.0,-999.0,86,0.00,,,0.00,open2300 v1.10,2013-09-11 10:57:00,
2013-09-11 06:06:00,73.0,68.6,30.13,SE,135,0.0,-999.0,86,0.00,,,0.00,open2300 v1.10,2013-09-11 11:06:00,
2013-09-11 06:11:00,73.0,68.6,30.13,SE,135,0.0,-999.0,86,0.00,,,0.00,open2300 v1.10,2013-09-11 11:11:00,
2013-09-11 06:16:00,73.0,68.6,30.13,SE,135,0.0,-999.0,86,0.00,,,0.00,open2300 v1.10,2013-09-11 11:16:00,
2013-09-11 06:22:00,73.0,68.6,30.13,SE,135,0.0,-999.0,86,0.00,,,0.00,open2300 v1.10,2013-09-11 11:22:00,
2013-09-11 06:27:00,73.0,68.9,30.13,SE,135,0.0,-999.0,87,0.00,,,0.00,open2300 v1.10,2013-09-11 11:27:00,
2013-09-11 06:32:00,72.9,68.8,30.14,SE,135,0.0,-999.0,87,0.00,,,0.00,open2300 v1.10,2013-09-11 11:32:00,
2013-09-11 06:42:00,72.7,68.6,30.14,SE,135,0.0,-999.0,87,0.00,,,0.00,open2300 v1.10,2013-09-11 11:42:00,
2013-09-11 06:47:00,72.5,68.4,30.14,SE,135,0.0,-999.0,87,0.00,,,0.00,open2300 v1.10,2013-09-11 11:47:00,
2013-09-11 06:52:00,72.5,68.4,30.14,SE,135,0.0,-999.0,87,0.00,,,0.00,open2300 v1.10,2013-09-11 11:52:00,
2013-09-11 06:57:00,72.7,68.6,30.14,SE,135,0.0,-999.0,87,0.00,,,0.00,open2300 v1.10,2013-09-11 11:57:00,
2013-09-11 07:06:00,72.5,68.4,30.14,SE,135,0.0,-999.0,87,0.00,,,0.00,open2300 v1.10,2013-09-11 12:06:00,
2013-09-11 07:11:00,72.5,68.4,30.14,SE,135,0.0,-999.0,87,0.00,,,0.00,open2300 v1.10,2013-09-11 12:11:00,
2013-09-11 07:16:00,72.7,68.9,30.14,SE,135,0.0,-999.0,88,0.00,,,0.00,open2300 v1.10,2013-09-11 12:16:00,
2013-09-11 07:21:00,72.9,68.8,30.14,SE,135,0.0,-999.0,87,0.00,,,0.00,open2300 v1.10,2013-09-11 12:21:00,
2013-09-11 07:27:00,73.2,69.1,30.14,SE,135,0.0,-999.0,87,0.00,,,0.00,open2300 v1.10,2013-09-11 12:27:00,
2013-09-11 07:32:00,73.4,69.0,30.15,SE,135,0.0,-999.0,86,0.00,,,0.00,open2300 v1.10,2013-09-11 12:32:00,
2013-09-11 07:37:00,73.6,69.2,30.14,SE,135,0.0,-999.0,86,0.00,,,0.00,open2300 v1.10,2013-09-11 12:37:00,
2013-09-11 07:47:00,74.1,69.3,30.15,SE,135,0.0,-999.0,85,0.00,,,0.00,open2300 v1.10,2013-09-11 12:47:00,
2013-09-11 07:52:00,74.5,69.7,30.15,SE,135,0.0,-999.0,85,0.00,,,0.00,open2300 v1.10,2013-09-11 12:52:00,
2013-09-11 07:57:00,74.8,69.7,30.15,SE,135,0.0,-999.0,84,0.00,,,0.00,open2300 v1.10,2013-09-11 12:57:00,
2013-09-11 08:06:00,75.4,69.9,30.15,SE,135,0.0,-999.0,83,0.00,,,0.00,open2300 v1.10,2013-09-11 13:06:00,
2013-09-11 08:11:00,75.7,69.9,30.15,SE,135,0.0,-999.0,82,0.00,,,0.00,open2300 v1.10,2013-09-11 13:11:00,
2013-09-11 08:16:00,76.6,70.4,30.15,South,180,0.0,-999.0,81,0.00,,,0.00,open2300 v1.10,2013-09-11 13:16:00,
2013-09-11 08:21:00,77.0,70.3,30.15,SSE,157,0.0,-999.0,80,0.00,,,0.00,open2300 v1.10,2013-09-11 13:21:00,
2013-09-11 08:27:00,77.4,69.9,30.15,SE,135,0.0,-999.0,78,0.00,,,0.00,open2300 v1.10,2013-09-11 13:27:00,
2013-09-11 08:32:00,77.7,70.3,30.15,SSE,157,0.0,-999.0,78,0.00,,,0.00,open2300 v1.10,2013-09-11 13:32:00,
2013-09-11 08:37:00,77.9,70.1,30.15,SSE,157,0.0,-999.0,77,0.00,,,0.00,open2300 v1.10,2013-09-11 13:37:00,
2013-09-11 08:42:00,78.1,70.2,30.15,SE,135,0.0,-999.0,77,0.00,,,0.00,open2300 v1.10,2013-09-11 13:42:00,
2013-09-11 08:47:00,78.4,70.2,30.15,SE,135,0.7,-999.0,76,0.00,,,0.00,open2300 v1.10,2013-09-11 13:47:00,
2013-09-11 08:57:00,78.6,70.0,30.15,SE,135,3.4,-999.0,75,0.00,,,0.00,open2300 v1.10,2013-09-11 13:57:00,
2013-09-11 09:06:00,79.0,70.3,30.15,SE,135,0.0,-999.0,75,0.00,,,0.00,open2300 v1.10,2013-09-11 14:06:00,
2013-09-11 09:11:00,79.3,70.3,30.15,SE,135,4.5,-999.0,74,0.00,,,0.00,open2300 v1.10,2013-09-11 14:11:00,
2013-09-11 09:16:00,79.5,70.5,30.16,SW,225,0.9,-999.0,74,0.00,,,0.00,open2300 v1.10,2013-09-11 14:16:00,
2013-09-11 09:21:00,79.7,70.3,30.16,SE,135,0.0,-999.0,73,0.00,,,0.00,open2300 v1.10,2013-09-11 14:21:00,
2013-09-11 09:26:00,80.2,70.8,30.16,SSE,157,0.0,-999.0,73,0.00,,,0.00,open2300 v1.10,2013-09-11 14:26:00,
2013-09-11 09:32:00,80.8,70.9,30.16,SW,225,0.0,-999.0,72,0.00,,,0.00,open2300 v1.10,2013-09-11 14:32:00,
2013-09-11 09:37:00,81.1,70.9,30.16,South,180,2.0,-999.0,71,0.00,,,0.00,open2300 v1.10,2013-09-11 14:37:00,
2013-09-11 09:47:00,82.0,70.4,30.16,SE,135,2.5,-999.0,68,0.00,,,0.00,open2300 v1.10,2013-09-11 14:47:00,
2013-09-11 09:52:00,82.0,69.9,30.16,SE,135,0.0,-999.0,67,0.00,,,0.00,open2300 v1.10,2013-09-11 14:52:00,
2013-09-11 09:57:00,82.0,69.9,30.16,South,180,1.3,-999.0,67,0.00,,,0.00,open2300 v1.10,2013-09-11 14:57:00,
2013-09-11 10:06:00,82.4,69.8,30.16,SSW,202,11.2,-999.0,66,0.00,,,0.00,open2300 v1.10,2013-09-11 15:06:00,
2013-09-11 10:11:00,82.8,69.7,30.17,South,180,2.9,-999.0,65,0.00,,,0.00,open2300 v1.10,2013-09-11 15:11:00,
2013-09-11 10:16:00,83.1,70.1,30.17,SSE,157,5.4,-999.0,65,0.00,,,0.00,open2300 v1.10,2013-09-11 15:16:00,
2013-09-11 10:22:00,83.3,69.8,30.16,SSE,157,6.0,-999.0,64,0.00,,,0.00,open2300 v1.10,2013-09-11 15:22:00,
2013-09-11 10:32:00,83.8,69.9,30.17,SSE,157,0.0,-999.0,63,0.00,,,0.00,open2300 v1.10,2013-09-11 15:32:00,
2013-09-11 10:42:00,83.8,69.9,30.16,SSW,202,6.9,-999.0,63,0.00,,,0.00,open2300 v1.10,2013-09-11 15:42:00,
2013-09-11 10:47:00,84.0,70.1,30.16,SSW,202,4.7,-999.0,63,0.00,,,0.00,open2300 v1.10,2013-09-11 15:47:00,
2013-09-11 10:52:00,84.4,70.4,30.16,SSW,202,5.1,-999.0,63,0.00,,,0.00,open2300 v1.10,2013-09-11 15:52:00,
2013-09-11 10:57:00,84.6,70.1,30.16,SE,135,4.0,-999.0,62,0.00,,,0.00,open2300 v1.10,2013-09-11 15:57:00,
2013-09-11 11:06:00,84.9,70.0,30.16,SSE,157,0.0,-999.0,61,0.00,,,0.00,open2300 v1.10,2013-09-11 16:06:00,
2013-09-11 11:11:00,85.1,70.2,30.16,SSE,157,0.7,-999.0,61,0.00,,,0.00,open2300 v1.10,2013-09-11 16:11:00,
2013-09-11 11:16:00,85.6,70.7,30.16,ESE,112,0.0,-999.0,61,0.00,,,0.00,open2300 v1.10,2013-09-11 16:16:00,
2013-09-11 11:21:00,85.8,70.4,30.16,SE,135,0.0,-999.0,60,0.00,,,0.00,open2300 v1.10,2013-09-11 16:21:00,
2013-09-11 11:26:00,86.0,70.5,30.15,WSW,247,2.5,-999.0,60,0.00,,,0.00,open2300 v1.10,2013-09-11 16:26:00,
2013-09-11 11:32:00,86.4,70.9,30.15,SSW,202,0.0,-999.0,60,0.00,,,0.00,open2300 v1.10,2013-09-11 16:32:00,
2013-09-11 11:37:00,86.7,70.2,30.15,ESE,112,0.0,-999.0,58,0.00,,,0.00,open2300 v1.10,2013-09-11 16:37:00,
2013-09-11 11:47:00,86.9,69.8,30.16,SSE,157,0.0,-999.0,57,0.00,,,0.00,open2300 v1.10,2013-09-11 16:47:00,
2013-09-11 11:52:00,87.1,70.0,30.16,SE,135,6.0,-999.0,57,0.00,,,0.00,open2300 v1.10,2013-09-11 16:52:00,
2013-09-11 11:57:00,87.1,70.5,30.16,SW,225,3.4,-999.0,58,0.00,,,0.00,open2300 v1.10,2013-09-11 16:57:00,
2013-09-11 12:06:00,87.6,70.5,30.15,SSE,157,7.2,-999.0,57,0.00,,,0.00,open2300 v1.10,2013-09-11 17:06:00,
2013-09-11 12:11:00,87.6,69.4,30.15,South,180,3.1,-999.0,55,0.00,,,0.00,open2300 v1.10,2013-09-11 17:11:00,
2013-09-11 12:16:00,87.8,69.6,30.15,SSW,202,0.0,-999.0,55,0.00,,,0.00,open2300 v1.10,2013-09-11 17:16:00,
2013-09-11 12:21:00,87.8,69.1,30.15,ESE,112,6.3,-999.0,54,0.00,,,0.00,open2300 v1.10,2013-09-11 17:21:00,
2013-09-11 12:27:00,87.6,68.9,30.15,SE,135,4.2,-999.0,54,0.00,,,0.00,open2300 v1.10,2013-09-11 17:27:00,
2013-09-11 12:32:00,87.6,69.4,30.15,ESE,112,0.0,-999.0,55,0.00,,,0.00,open2300 v1.10,2013-09-11 17:32:00,
2013-09-11 12:37:00,87.8,69.1,30.14,SSE,157,0.4,-999.0,54,0.00,,,0.00,open2300 v1.10,2013-09-11 17:37:00,
2013-09-11 12:47:00,88.9,69.5,30.14,South,180,5.6,-999.0,53,0.00,,,0.00,open2300 v1.10,2013-09-11 17:47:00,
2013-09-11 12:52:00,89.2,69.3,30.14,SE,135,7.4,-999.0,52,0.00,,,0.00,open2300 v1.10,2013-09-11 17:52:00,
2013-09-11 12:57:00,88.9,67.2,30.13,SE,135,0.0,-999.0,49,0.00,,,0.00,open2300 v1.10,2013-09-11 17:57:00,
2013-09-11 13:06:00,88.5,67.6,30.13,SSE,157,7.8,-999.0,50,0.00,,,0.00,open2300 v1.10,2013-09-11 18:06:00,
2013-09-11 13:16:00,88.3,66.8,30.13,SE,135,6.5,-999.0,49,0.00,,,0.00,open2300 v1.10,2013-09-11 18:16:00,
2013-09-11 13:27:00,88.5,66.9,30.12,SE,135,6.3,-999.0,49,0.00,,,0.00,open2300 v1.10,2013-09-11 18:27:00,
2013-09-11 13:32:00,88.7,68.3,30.12,SE,135,5.1,-999.0,51,0.00,,,0.00,open2300 v1.10,2013-09-11 18:32:00,
2013-09-11 13:37:00,89.2,68.8,30.12,SSE,157,7.4,-999.0,51,0.00,,,0.00,open2300 v1.10,2013-09-11 18:37:00,
2013-09-11 13:42:00,89.2,68.2,30.12,SE,135,7.2,-999.0,50,0.00,,,0.00,open2300 v1.10,2013-09-11 18:42:00,
2013-09-11 13:47:00,89.4,67.7,30.12,ESE,112,6.7,-999.0,49,0.00,,,0.00,open2300 v1.10,2013-09-11 18:47:00,
2013-09-11 13:57:00,89.8,67.4,30.11,SSW,202,4.5,-999.0,48,0.00,,,0.00,open2300 v1.10,2013-09-11 18:57:00,
2013-09-11 14:06:00,90.7,67.6,30.11,SSW,202,9.6,-999.0,47,0.00,,,0.00,open2300 v1.10,2013-09-11 19:06:00,
2013-09-11 14:11:00,91.0,67.9,30.11,SSW,202,3.4,-999.0,47,0.00,,,0.00,open2300 v1.10,2013-09-11 19:11:00,
2013-09-11 14:16:00,91.0,66.6,30.11,SSE,157,7.2,-999.0,45,0.00,,,0.00,open2300 v1.10,2013-09-11 19:16:00,
2013-09-11 14:21:00,90.9,67.1,30.10,SSE,157,6.3,-999.0,46,0.00,,,0.00,open2300 v1.10,2013-09-11 19:21:00,
2013-09-11 14:26:00,90.7,67.6,30.10,SSW,202,9.8,-999.0,47,0.00,,,0.00,open2300 v1.10,2013-09-11 19:26:00,
2013-09-11 14:32:00,90.7,67.6,30.10,South,180,0.0,-999.0,47,0.00,,,0.00,open2300 v1.10,2013-09-11 19:32:00,
2013-09-11 14:37:00,90.9,67.7,30.10,WSW,247,6.7,-999.0,47,0.00,,,0.00,open2300 v1.10,2013-09-11 19:37:00,
2013-09-11 14:42:00,91.0,67.2,30.10,ESE,112,9.2,-999.0,46,0.00,,,0.00,open2300 v1.10,2013-09-11 19:42:00,
2013-09-11 14:47:00,91.2,67.4,30.09,SSW,202,2.9,-999.0,46,0.00,,,0.00,open2300 v1.10,2013-09-11 19:47:00,
2013-09-11 14:52:00,91.2,67.4,30.10,SW,225,0.0,-999.0,46,0.00,,,0.00,open2300 v1.10,2013-09-11 19:52:00,
2013-09-11 14:57:00,91.2,67.4,30.09,SW,225,11.6,-999.0,46,0.00,,,0.00,open2300 v1.10,2013-09-11 19:57:00,
2013-09-11 15:06:00,91.2,67.4,30.08,SSW,202,0.0,-999.0,46,0.00,,,0.00,open2300 v1.10,2013-09-11 20:06:00,
2013-09-11 15:11:00,91.6,67.1,30.08,South,180,6.5,-999.0,45,0.00,,,0.00,open2300 v1.10,2013-09-11 20:11:00,
2013-09-11 15:22:00,91.2,67.4,30.08,East,90,0.0,-999.0,46,0.00,,,0.00,open2300 v1.10,2013-09-11 20:22:00,
2013-09-11 15:27:00,91.8,67.9,30.07,WSW,247,0.0,-999.0,46,0.00,,,0.00,open2300 v1.10,2013-09-11 20:27:00,
2013-09-11 15:32:00,92.3,67.7,30.08,SSE,157,9.4,-999.0,45,0.00,,,0.00,open2300 v1.10,2013-09-11 20:32:00,
2013-09-11 15:37:00,92.5,67.9,30.08,SSE,157,4.2,-999.0,45,0.00,,,0.00,open2300 v1.10,2013-09-11 20:37:00,
2013-09-11 15:42:00,92.5,67.2,30.08,South,180,0.7,-999.0,44,0.00,,,0.00,open2300 v1.10,2013-09-11 20:42:00,
2013-09-11 15:47:00,92.8,67.6,30.07,SSW,202,6.9,-999.0,44,0.00,,,0.00,open2300 v1.10,2013-09-11 20:47:00,
2013-09-11 15:52:00,92.8,68.2,30.07,SSE,157,1.3,-999.0,45,0.00,,,0.00,open2300 v1.10,2013-09-11 20:52:00,
2013-09-11 15:57:00,92.5,67.2,30.07,SSW,202,6.7,-999.0,44,0.00,,,0.00,open2300 v1.10,2013-09-11 20:57:00,
2013-09-11 16:06:00,91.8,67.2,30.07,SSW,202,0.0,-999.0,45,0.00,,,0.00,open2300 v1.10,2013-09-11 21:06:00,
2013-09-11 16:11:00,91.6,67.1,30.07,South,180,0.0,-999.0,45,0.00,,,0.00,open2300 v1.10,2013-09-11 21:11:00,
2013-09-11 16:16:00,91.2,66.8,30.06,SSE,157,0.0,-999.0,45,0.00,,,0.00,open2300 v1.10,2013-09-11 21:16:00,
2013-09-11 16:21:00,91.2,66.8,30.06,SSW,202,0.0,-999.0,45,0.00,,,0.00,open2300 v1.10,2013-09-11 21:21:00,
2013-09-11 16:26:00,91.6,67.1,30.06,SSW,202,3.6,-999.0,45,0.00,,,0.00,open2300 v1.10,2013-09-11 21:26:00,
2013-09-11 16:32:00,91.6,67.1,30.06,SSE,157,0.0,-999.0,45,0.00,,,0.00,open2300 v1.10,2013-09-11 21:32:00,
2013-09-11 16:37:00,91.6,67.1,30.06,SW,225,1.6,-999.0,45,0.00,,,0.00,open2300 v1.10,2013-09-11 21:37:00,
2013-09-11 16:47:00,91.9,67.4,30.06,South,180,0.0,-999.0,45,0.00,,,0.00,open2300 v1.10,2013-09-11 21:47:00,
2013-09-11 16:52:00,92.1,66.9,30.06,SW,225,6.5,-999.0,44,0.00,,,0.00,open2300 v1.10,2013-09-11 21:52:00,
2013-09-11 16:57:00,92.1,66.9,30.06,SW,225,0.0,-999.0,44,0.00,,,0.00,open2300 v1.10,2013-09-11 21:57:00,
2013-09-11 17:06:00,91.9,67.4,30.06,SSW,202,6.9,-999.0,45,0.00,,,0.00,open2300 v1.10,2013-09-11 22:06:00,
2013-09-11 17:11:00,92.1,67.6,30.06,SSW,202,0.0,-999.0,45,0.00,,,0.00,open2300 v1.10,2013-09-11 22:11:00,
2013-09-11 17:16:00,91.9,67.4,30.06,SSW,202,3.4,-999.0,45,0.00,,,0.00,open2300 v1.10,2013-09-11 22:16:00,
2013-09-11 17:21:00,91.8,67.2,30.06,South,180,0.0,-999.0,45,0.00,,,0.00,open2300 v1.10,2013-09-11 22:21:00,
2013-09-11 17:27:00,91.8,67.2,30.06,WNW,292,0.0,-999.0,45,0.00,,,0.00,open2300 v1.10,2013-09-11 22:27:00,
2013-09-11 17:37:00,91.6,67.1,30.06,SW,225,3.8,-999.0,45,0.00,,,0.00,open2300 v1.10,2013-09-11 22:37:00,
2013-09-11 17:47:00,91.2,66.8,30.06,SSE,157,0.0,-999.0,45,0.00,,,0.00,open2300 v1.10,2013-09-11 22:47:00,
2013-09-11 17:52:00,91.2,66.8,30.05,SW,225,0.4,-999.0,45,0.00,,,0.00,open2300 v1.10,2013-09-11 22:52:00,
2013-09-11 17:57:00,91.0,66.6,30.06,SSW,202,2.9,-999.0,45,0.00,,,0.00,open2300 v1.10,2013-09-11 22:57:00,
2013-09-11 18:06:00,91.0,67.2,30.06,SW,225,5.1,-999.0,46,0.00,,,0.00,open2300 v1.10,2013-09-11 23:06:00,
2013-09-11 18:11:00,90.9,67.1,30.06,South,180,0.0,-999.0,46,0.00,,,0.00,open2300 v1.10,2013-09-11 23:11:00,
2013-09-11 18:16:00,90.9,67.1,30.06,SW,225,6.5,-999.0,46,0.00,,,0.00,open2300 v1.10,2013-09-11 23:16:00,
2013-09-11 18:21:00,90.7,66.9,30.05,SSW,202,5.1,-999.0,46,0.00,,,0.00,open2300 v1.10,2013-09-11 23:21:00,
2013-09-11 18:26:00,90.5,67.4,30.05,SSW,202,0.2,-999.0,47,0.00,,,0.00,open2300 v1.10,2013-09-11 23:26:00,
2013-09-11 18:32:00,90.3,67.2,30.05,West,270,0.0,-999.0,47,0.00,,,0.00,open2300 v1.10,2013-09-11 23:32:00,
2013-09-11 18:37:00,90.1,67.1,30.05,SW,225,0.0,-999.0,47,0.00,,,0.00,open2300 v1.10,2013-09-11 23:37:00,
2013-09-11 18:42:00,89.8,66.8,30.05,SW,225,0.0,-999.0,47,0.00,,,0.00,open2300 v1.10,2013-09-11 23:42:00,
2013-09-11 18:47:00,89.8,67.4,30.05,SSW,202,2.2,-999.0,48,0.00,,,0.00,open2300 v1.10,2013-09-11 23:47:00,
2013-09-11 18:52:00,89.4,67.1,30.05,SW,225,2.9,-999.0,48,0.00,,,0.00,open2300 v1.10,2013-09-11 23:52:00,
2013-09-11 18:57:00,89.4,67.1,30.06,SSW,202,0.0,-999.0,48,0.00,,,0.00,open2300 v1.10,2013-09-11 23:57:00,
2013-09-11 19:06:00,88.9,67.2,30.06,SSW,202,0.0,-999.0,49,0.00,,,0.00,open2300 v1.10,2013-09-12 00:06:00,
2013-09-11 19:11:00,88.7,67.1,30.06,SSW,202,0.0,-999.0,49,0.00,,,0.00,open2300 v1.10,2013-09-12 00:11:00,
2013-09-11 19:16:00,88.5,67.6,30.06,SSW,202,0.0,-999.0,50,0.00,,,0.00,open2300 v1.10,2013-09-12 00:16:00,
2013-09-11 19:21:00,88.3,67.4,30.06,SSW,202,0.0,-999.0,50,0.00,,,0.00,open2300 v1.10,2013-09-12 00:21:00,
2013-09-11 19:26:00,88.2,67.2,30.06,SSW,202,0.0,-999.0,50,0.00,,,0.00,open2300 v1.10,2013-09-12 00:26:00,
2013-09-11 19:32:00,88.0,67.6,30.06,SSW,202,0.0,-999.0,51,0.00,,,0.00,open2300 v1.10,2013-09-12 00:32:00,
2013-09-11 19:37:00,87.6,67.3,30.06,SSW,202,0.0,-999.0,51,0.00,,,0.00,open2300 v1.10,2013-09-12 00:37:00,
2013-09-11 19:42:00,87.6,67.3,30.06,SSW,202,0.0,-999.0,51,0.00,,,0.00,open2300 v1.10,2013-09-12 00:42:00,
2013-09-11 19:47:00,87.3,67.5,30.06,SSW,202,0.0,-999.0,52,0.00,,,0.00,open2300 v1.10,2013-09-12 00:47:00,
2013-09-11 19:52:00,87.1,67.3,30.06,SSW,202,0.0,-999.0,52,0.00,,,0.00,open2300 v1.10,2013-09-12 00:52:00,
2013-09-11 19:57:00,86.7,67.5,30.06,SSW,202,0.0,-999.0,53,0.00,,,0.00,open2300 v1.10,2013-09-12 00:57:00,
2013-09-11 20:06:00,86.2,67.0,30.06,SSW,202,0.0,-999.0,53,0.00,,,0.00,open2300 v1.10,2013-09-12 01:06:00,
2013-09-11 20:11:00,86.0,67.4,30.06,SSW,202,0.0,-999.0,54,0.00,,,0.00,open2300 v1.10,2013-09-12 01:11:00,
2013-09-11 20:16:00,85.8,67.8,30.07,SSW,202,0.0,-999.0,55,0.00,,,0.00,open2300 v1.10,2013-09-12 01:16:00,
2013-09-11 20:21:00,85.3,67.8,30.07,SSW,202,0.0,-999.0,56,0.00,,,0.00,open2300 v1.10,2013-09-12 01:21:00,
2013-09-11 20:27:00,84.9,67.5,30.07,SSW,202,0.0,-999.0,56,0.00,,,0.00,open2300 v1.10,2013-09-12 01:27:00,
2013-09-11 20:32:00,84.7,67.8,30.07,SSW,202,0.0,-999.0,57,0.00,,,0.00,open2300 v1.10,2013-09-12 01:32:00,
2013-09-11 20:37:00,84.4,67.5,30.08,SSW,202,0.0,-999.0,57,0.00,,,0.00,open2300 v1.10,2013-09-12 01:37:00,
2013-09-11 20:47:00,84.0,67.7,30.08,South,180,1.1,-999.0,58,0.00,,,0.00,open2300 v1.10,2013-09-12 01:47:00,
2013-09-11 20:52:00,83.8,67.5,30.08,South,180,0.0,-999.0,58,0.00,,,0.00,open2300 v1.10,2013-09-12 01:52:00,
2013-09-11 20:57:00,83.8,67.5,30.08,South,180,0.0,-999.0,58,0.00,,,0.00,open2300 v1.10,2013-09-12 01:57:00,
2013-09-11 21:06:00,83.5,67.7,30.09,South,180,0.0,-999.0,59,0.00,,,0.00,open2300 v1.10,2013-09-12 02:06:00,
2013-09-11 21:11:00,83.3,68.0,30.09,South,180,0.0,-999.0,60,0.00,,,0.00,open2300 v1.10,2013-09-12 02:11:00,
2013-09-11 21:16:00,83.3,68.0,30.09,South,180,0.0,-999.0,60,0.00,,,0.00,open2300 v1.10,2013-09-12 02:16:00,
2013-09-11 21:21:00,83.1,67.8,30.09,South,180,0.0,-999.0,60,0.00,,,0.00,open2300 v1.10,2013-09-12 02:21:00,
2013-09-11 21:26:00,82.9,68.1,30.09,South,180,0.0,-999.0,61,0.00,,,0.00,open2300 v1.10,2013-09-12 02:26:00,
2013-09-11 21:32:00,82.9,68.1,30.09,South,180,0.0,-999.0,61,0.00,,,0.00,open2300 v1.10,2013-09-12 02:32:00,
2013-09-11 21:37:00,82.8,68.4,30.09,South,180,0.0,-999.0,62,0.00,,,0.00,open2300 v1.10,2013-09-12 02:37:00,
2013-09-11 21:42:00,82.6,67.7,30.09,South,180,0.0,-999.0,61,0.00,,,0.00,open2300 v1.10,2013-09-12 02:42:00,
2013-09-11 21:47:00,82.2,67.8,30.09,South,180,0.0,-999.0,62,0.00,,,0.00,open2300 v1.10,2013-09-12 02:47:00,
2013-09-11 21:52:00,82.2,67.8,30.10,South,180,0.0,-999.0,62,0.00,,,0.00,open2300 v1.10,2013-09-12 02:52:00,
2013-09-11 21:57:00,82.0,68.1,30.10,South,180,0.0,-999.0,63,0.00,,,0.00,open2300 v1.10,2013-09-12 02:57:00,
2013-09-11 22:06:00,81.7,67.8,30.09,SSW,202,0.0,-999.0,63,0.00,,,0.00,open2300 v1.10,2013-09-12 03:06:00,
2013-09-11 22:11:00,81.7,68.2,30.09,SSW,202,0.0,-999.0,64,0.00,,,0.00,open2300 v1.10,2013-09-12 03:11:00,
2013-09-11 22:16:00,81.3,67.9,30.10,SSW,202,0.0,-999.0,64,0.00,,,0.00,open2300 v1.10,2013-09-12 03:16:00,
2013-09-11 22:21:00,81.3,67.9,30.09,SSW,202,0.0,-999.0,64,0.00,,,0.00,open2300 v1.10,2013-09-12 03:21:00,
2013-09-11 22:27:00,81.1,67.8,30.09,SSW,202,0.0,-999.0,64,0.00,,,0.00,open2300 v1.10,2013-09-12 03:27:00,
2013-09-11 22:32:00,81.1,67.8,30.09,SSW,202,0.0,-999.0,65,0.00,,,0.00,open2300 v1.10,2013-09-12 03:32:00,
2013-09-11 22:37:00,81.0,68.1,30.09,SSW,202,0.0,-999.0,65,0.00,,,0.00,open2300 v1.10,2013-09-12 03:37:00,
2013-09-11 22:42:00,80.8,67.9,30.09,SSW,202,0.0,-999.0,65,0.00,,,0.00,open2300 v1.10,2013-09-12 03:42:00,
2013-09-11 22:47:00,80.8,67.9,30.09,SSW,202,0.0,-999.0,65,0.00,,,0.00,open2300 v1.10,2013-09-12 03:47:00,
2013-09-11 22:52:00,80.6,68.2,30.09,SSW,202,0.0,-999.0,66,0.00,,,0.00,open2300 v1.10,2013-09-12 03:52:00,
2013-09-11 22:57:00,80.4,68.0,30.09,SSW,202,0.0,-999.0,66,0.00,,,0.00,open2300 v1.10,2013-09-12 03:57:00,
2013-09-11 23:01:00,80.4,68.0,30.09,SSW,202,0.0,-999.0,66,0.00,,,0.00,open2300 v1.10,2013-09-12 04:01:00,
2013-09-11 23:11:00,80.4,68.0,30.09,SSW,202,0.0,-999.0,66,0.00,,,0.00,open2300 v1.10,2013-09-12 04:11:00,
2013-09-11 23:16:00,80.4,68.4,30.09,SSW,202,0.0,-999.0,67,0.00,,,0.00,open2300 v1.10,2013-09-12 04:16:00,
2013-09-11 23:21:00,80.1,68.1,30.09,SSW,202,0.0,-999.0,67,0.00,,,0.00,open2300 v1.10,2013-09-12 04:21:00,
2013-09-11 23:26:00,79.9,67.9,30.09,SSW,202,0.0,-999.0,67,0.00,,,0.00,open2300 v1.10,2013-09-12 04:26:00,
2013-09-11 23:32:00,79.7,67.8,30.08,SSW,202,0.0,-999.0,67,0.00,,,0.00,open2300 v1.10,2013-09-12 04:32:00,
2013-09-11 23:37:00,79.7,67.8,30.09,SSW,202,0.0,-999.0,67,0.00,,,0.00,open2300 v1.10,2013-09-12 04:37:00,
2013-09-11 23:42:00,79.5,67.6,30.09,SSW,202,0.0,-999.0,67,0.00,,,0.00,open2300 v1.10,2013-09-12 04:42:00,
2013-09-11 23:47:00,79.5,68.0,30.08,SSW,202,0.0,-999.0,68,0.00,,,0.00,open2300 v1.10,2013-09-12 04:47:00,
2013-09-11 23:52:00,79.5,68.0,30.08,SSW,202,0.0,-999.0,68,0.00,,,0.00,open2300 v1.10,2013-09-12 04:52:00,
2013-09-11 23:57:00,79.5,68.0,30.08,SSW,202,0.0,-999.0,68,0.00,,,0.00,open2300 v1.10,2013-09-12 04:57:00,